EW8749 Weather Reports


time (UTC)temp
F
wind
direction
speed
knots
gust
knots
rain 1hr
in
rain 24hr
in
rain mn
in
humidity
%
barometer
mb
20260901080022 58 310 0.0 0.0 0.00 0.01 0.01 67 1020.3
20260901074526 59 280 0.0 0.0 0.00 0.01 0.01 66 1020.2
20260901073020 60 255 0.0 1.7 0.00 0.01 0.01 65 1020.4
20260901071520 61 292 0.0 0.0 0.00 0.01 0.01 62 1020.4
20260901070018 62 292 0.0 6.1 0.00 0.01 0.01 57 1020.4
20260901064521 63 242 0.0 7.0 0.00 0.01 0.01 54 1020.6
20260901063017 63 221 0.9 10.4 0.00 0.01 0.01 51 1020.5
20260901061515 64 242 0.9 14.8 0.00 0.01 0.01 52 1020.6
20260901060014 64 274 0.9 11.3 0.00 0.01 0.01 51 1020.6
20260901054514 64 270 4.3 15.6 0.00 0.01 0.01 50 1020.6
20260901053018 64 219 0.0 13.0 0.00 0.01 0.01 53 1020.7
20260901051512 64 254 0.0 7.8 0.00 0.01 0.01 56 1020.9
20260901050011 64 309 1.7 11.3 0.00 0.01 0.01 54 1021.0
20260901044514 64 301 0.9 13.0 0.00 0.01 0.01 50 1021.1
20260901043016 65 213 2.6 10.4 0.00 0.01 0.01 50 1021.3
20260901041506 64 279 3.5 15.6 0.00 0.01 0.01 50 1021.3
20260901040004 64 238 0.9 13.0 0.00 0.01 0.01 49 1021.4
20260901034501 65 236 0.0 12.2 0.00 0.01 0.01 51 1021.7
20260901033059 64 281 1.7 11.3 0.00 0.01 0.01 50 1022.0
20260901031559 64 213 0.9 13.0 0.00 0.01 0.01 51 1022.3
20260901030055 64 248 2.6 14.8 0.00 0.01 0.01 51 1022.5
20260901024552 63 275 0.9 12.2 0.00 0.01 0.01 51 1022.8
20260901023051 63 230 1.7 10.4 0.00 0.01 0.01 52 1023.1
20260901021607 63 250 0.9 10.4 0.00 0.01 0.01 57 1023.3
20260901020100 62 258 0.9 11.3 0.01 0.01 0.01 60 1023.7
20260901014539 62 258 0.9 8.7 0.01 0.01 0.01 65 1024.0
20260901013042 61 251 0.0 7.0 0.01 0.01 0.01 66 1024.2
20260901011539 60 287 0.0 1.7 0.01 0.01 0.01 69 1024.7
20260901010029 60 277 0.0 8.7 0.00 0.00 0.00 70 1025.0
20260901004526 60 234 0.0 8.7 0.00 0.00 0.00 69 1025.2
20260901003024 59 238 0.0 4.3 0.00 0.00 0.00 70 1025.4
20260901001525 58 301 0.0 6.1 0.00 0.00 0.00 72 1025.5
20260901000014 57 277 0.0 7.8 0.00 0.00 0.00 73 1025.8
20260831234512 56 303 0.0 7.8 0.00 0.00 0.00 72 1026.1
20260831233014 55 270 0.0 4.3 0.00 0.00 0.00 75 1026.4
20260831231504 55 257 0.0 3.5 0.00 0.00 0.00 76 1026.6
20260831230101 54 249 0.0 0.9 0.00 0.00 0.00 77 1026.9
20260831224557 53 344 0.0 0.0 0.00 0.00 0.00 79 1027.0
20260831223055 52 245 0.0 0.0 0.00 0.00 0.00 80 1027.1
20260831221553 52 261 0.0 0.0 0.00 0.00 0.00 79 1027.2
20260831220108 51 295 0.0 0.0 0.00 0.00 0.00 81 1027.0
20260831214549 50 329 0.0 0.0 0.00 0.00 0.00 84 1027.1
20260831213043 48 255 0.0 0.0 0.00 0.00 0.00 88 1027.2
20260831211538 46 279 0.0 0.0 0.00 0.00 0.00 92 1027.3
20260831210041 45 331 0.0 0.0 0.00 0.00 0.00 91 1027.3
20260831204634 44 320 0.0 0.0 0.00 0.00 0.00 91 1027.2
20260831203034 41 296 0.0 0.0 0.00 0.00 0.00 91 1027.2
20260831201540 41 296 0.0 0.0 0.00 0.00 0.00 91 1027.2
20260831200039 41 296 0.0 0.0 0.00 0.00 0.00 91 1027.1
20260831194602 41 296 0.0 0.0 0.00 0.01 0.00 91 1027.2
20260831193030 41 296 0.0 0.0 0.00 0.01 0.00 91 1027.1
20260831191534 41 296 0.0 0.0 0.00 0.01 0.00 91 1027.2
20260831190026 41 296 0.0 0.0 0.00 0.01 0.00 91 1027.3
20260831184528 42 296 0.0 0.0 0.00 0.01 0.00 91 1027.4
20260831183023 42 296 0.0 0.0 0.00 0.01 0.00 91 1027.4
20260831181524 42 296 0.0 0.0 0.00 0.01 0.00 91 1027.4
20260831180024 42 296 0.0 0.0 0.00 0.01 0.00 91 1027.6
20260831174518 41 296 0.0 0.0 0.00 0.01 0.00 92 1027.7
20260831173016 42 296 0.0 0.0 0.00 0.01 0.00 91 1027.7
20260831171516 41 296 0.0 0.0 0.00 0.01 0.00 91 1027.8
20260831170014 41 296 0.0 0.0 0.00 0.01 0.00 92 1027.9
20260831164509 42 296 0.0 0.0 0.00 0.01 0.00 92 1028.0
20260831163011 42 296 0.0 0.0 0.00 0.01 0.00 92 1028.1
20260831161511 43 296 0.0 0.0 0.00 0.01 0.00 92 1028.4
20260831160007 44 296 0.0 0.0 0.00 0.01 0.00 92 1028.5
20260831154505 44 296 0.0 0.0 0.00 0.01 0.00 92 1028.7
20260831153059 44 296 0.0 0.0 0.00 0.01 0.00 92 1028.9
20260831151603 43 296 0.0 0.0 0.00 0.01 0.00 91 1029.0
20260831150054 44 296 0.0 0.0 0.00 0.01 0.00 91 1029.0
20260831144607 44 296 0.0 0.0 0.00 0.01 0.00 91 1029.1
20260831141550 45 296 0.0 0.0 0.00 0.01 0.00 89 1029.2
20260831140043 46 296 0.0 0.0 0.00 0.01 0.00 89 1029.2
20260831134544 46 296 0.0 0.0 0.00 0.01 0.01 89 1029.2
20260831133042 46 296 0.0 0.0 0.00 0.01 0.01 89 1029.3
20260831131542 46 296 0.0 0.0 0.00 0.01 0.01 88 1029.4
20260831130047 47 296 0.0 0.0 0.00 0.01 0.01 88 1029.6
20260831124540 47 296 0.0 0.0 0.00 0.01 0.01 87 1029.8
20260831123039 48 296 0.0 0.0 0.00 0.01 0.01 86 1029.8
20260831121539 48 296 0.0 0.0 0.00 0.01 0.01 85 1030.0
20260831120039 50 296 0.0 0.0 0.00 0.01 0.01 81 1029.9
20260831114538 51 296 0.0 0.0 0.00 0.01 0.01 80 1030.1
20260831113038 51 296 0.0 0.0 0.00 0.01 0.01 81 1030.0
20260831111557 51 296 0.0 0.0 0.00 0.01 0.01 81 1030.1
20260831110048 52 296 0.0 0.0 0.00 0.01 0.01 79 1030.0
20260831104537 53 296 0.0 0.0 0.00 0.01 0.01 78 1030.1
20260831103036 53 296 0.0 0.0 0.00 0.01 0.01 78 1030.0
20260831101535 54 296 0.0 0.0 0.00 0.01 0.01 76 1029.9
20260831100035 55 290 0.0 0.0 0.00 0.01 0.01 75 1029.8
20260831094540 55 283 0.0 0.0 0.00 0.01 0.01 74 1029.8
20260831093034 55 303 0.0 0.0 0.00 0.01 0.01 73 1029.7
20260831091533 56 299 0.0 0.0 0.00 0.01 0.01 72 1029.8
20260831090032 56 258 0.0 0.0 0.00 0.01 0.01 73 1029.7
20260831084540 57 296 0.0 0.0 0.00 0.01 0.01 73 1029.6
20260831083033 57 287 0.0 0.0 0.00 0.01 0.01 73 1029.6
20260831081531 58 298 0.0 0.0 0.00 0.01 0.01 73 1029.5